Weather reports worldwide

Advertisment
Tortosa, Spain (8238): temperature & dewpoint: 14.06.2019 06:00:00 - 20.06.2019 06:00:00 (CEST)Tortosa, Spain (8238): wind speed: 14.06.2019 06:00:00 - 20.06.2019 06:00:00 (CEST)Tortosa, Spain (8238): wind direction: 14.06.2019 06:00:00 - 20.06.2019 06:00:00 (CEST)Tortosa, Spain (8238): reduced air pressure: 14.06.2019 06:00:00 - 20.06.2019 06:00:00 (CEST)Tortosa, Spain (8238): visibility: 14.06.2019 06:00:00 - 20.06.2019 06:00:00 (CEST)Tortosa, Spain (8238): precipitation: 14.06.2019 06:00:00 - 20.06.2019 06:00:00 (CEST)
Date & Time tt [°C] td [°C] ff [km/h] ff [kn] dd ppp [hPa] vv [km] rr [mm]
20.06.2019 06:00:00 - - - - - - - -
20.06.2019 05:00:00 19,4 17,0 0 0 N 1012,8 15 -
20.06.2019 04:00:00 19,9 17,3 2 1 SE 1012,5 15 0,0
20.06.2019 03:00:00 20,3 17,9 11 6 S 1012,6 12 0,0
20.06.2019 02:00:00 20,7 18,3 8 4 SSW 1012,5 13 -
20.06.2019 01:00:00 20,9 18,3 13 7 SSW 1012,6 15 0,0
20.06.2019 00:00:00 21,3 18,3 9 5 SW 1012,6 17 0,0
19.06.2019 23:00:00 22,0 18,4 11 6 SSW 1012,4 17 -
19.06.2019 22:00:00 23,1 18,4 9 5 S 1011,9 19 0,0
19.06.2019 21:00:00 24,8 17,8 9 5 SSE 1011,3 20 0,0
19.06.2019 20:00:00 27,5 16,8 16 9 SSE 1010,9 5 -
19.06.2019 19:00:00 29,6 14,6 16 9 SE 1010,8 20 0,0
19.06.2019 18:00:00 30,9 16,9 15 8 SSE 1010,8 20 0,0
19.06.2019 17:00:00 32,3 18,1 18 10 SE 1011,1 6 -
19.06.2019 16:00:00 33,1 19,2 15 8 SSE 1011,4 20 0,0
19.06.2019 15:00:00 32,5 19,4 15 8 SSE 1011,7 20 0,0
19.06.2019 14:00:00 31,2 19,2 18 10 SSE 1012,2 7 -
19.06.2019 13:00:00 30,8 18,2 13 7 S 1012,6 20 0,0
19.06.2019 12:00:00 28,9 18,4 13 7 SSE 1013,1 20 0,0
19.06.2019 11:00:00 27,0 16,0 5 3 SSE 1013,1 20 -
19.06.2019 10:00:00 24,8 16,2 4 2 ESE 1013,6 18 0,0
19.06.2019 09:00:00 22,4 16,4 4 2 ENE 1013,8 20 0,0
19.06.2019 08:00:00 19,0 13,2 4 2 N 1013,8 5 -
19.06.2019 07:00:00 17,4 11,9 4 2 NNW 1013,5 20 0,0
19.06.2019 06:00:00 17,4 11,9 2 1 ESE 1013,4 20 0,0
19.06.2019 05:00:00 17,9 12,1 2 1 NW 1013,2 20 -
19.06.2019 04:00:00 18,4 13,0 8 4 W 1013,3 20 0,0
19.06.2019 03:00:00 18,1 14,4 9 5 SW 1013,1 20 0,0
19.06.2019 02:00:00 19,1 15,8 5 3 SW 1013,5 20 -
19.06.2019 01:00:00 19,8 16,2 9 5 SSE 1013,5 20 0,0
19.06.2019 00:00:00 20,4 15,6 11 6 SE 1013,5 20 0,0
18.06.2019 23:00:00 20,9 15,2 15 8 SE 1013,3 20 -
18.06.2019 22:00:00 21,6 15,0 15 8 SE 1013,1 20 0,0
18.06.2019 21:00:00 23,4 14,4 16 9 SE 1012,9 20 0,0
18.06.2019 20:00:00 26,0 10,2 21 11 SE 1012,5 8 -
18.06.2019 19:00:00 28,8 9,0 22 12 SE 1012,4 20 0,0
18.06.2019 18:00:00 30,2 2,4 24 13 SSE 1012,5 20 0,0
18.06.2019 17:00:00 31,0 7,4 22 12 S 1012,6 8 -
18.06.2019 16:00:00 28,0 15,3 21 11 ESE 1013,1 20 0,0
18.06.2019 15:00:00 29,0 16,2 16 9 SE 1013,6 20 0,0
18.06.2019 14:00:00 29,5 17,7 18 10 SE 1013,9 5 -
18.06.2019 13:00:00 27,9 17,4 18 10 SE 1014,3 20 0,0
18.06.2019 12:00:00 27,4 17,6 15 8 SE 1014,7 20 0,0
18.06.2019 11:00:00 26,2 17,3 15 8 SSE 1015,1 8 -
18.06.2019 10:00:00 24,1 16,9 11 6 SSE 1015,4 20 0,0
18.06.2019 09:00:00 21,9 17,7 9 5 SSE 1015,4 18 0,0
18.06.2019 08:00:00 20,3 17,5 11 6 S 1015,2 5 -
18.06.2019 07:00:00 18,3 16,3 11 6 SSW 1014,9 19 0,0
18.06.2019 06:00:00 19,3 16,1 13 7 SSW 1014,7 20 0,0
18.06.2019 05:00:00 19,8 15,9 11 6 S 1014,6 20 -
18.06.2019 04:00:00 19,9 15,3 11 6 S 1014,8 20 0,0
18.06.2019 03:00:00 20,3 13,0 8 4 S 1015,1 20 0,0
18.06.2019 02:00:00 20,5 11,9 15 8 SSE 1015,5 20 -
18.06.2019 01:00:00 20,9 12,1 13 7 SSE 1015,7 20 0,0
18.06.2019 00:00:00 21,4 11,7 16 9 SSE 1015,7 20 0,0
17.06.2019 23:00:00 21,8 12,6 15 8 SE 1015,7 20 -
17.06.2019 22:00:00 22,9 11,9 13 7 SE 1015,1 20 0,0
17.06.2019 21:00:00 24,9 10,4 13 7 SSE 1014,8 20 0,0
17.06.2019 20:00:00 27,0 11,9 15 8 S 1014,6 5 -
17.06.2019 19:00:00 29,1 12,5 16 9 S 1014,5 20 0,0
17.06.2019 18:00:00 27,5 14,8 13 7 ESE 1014,5 20 0,0
17.06.2019 17:00:00 28,7 15,2 18 10 SE 1014,8 5 -
17.06.2019 16:00:00 28,2 17,4 13 7 SE 1015,2 18 0,0
17.06.2019 15:00:00 29,1 18,2 15 8 SE 1015,4 19 0,0
17.06.2019 14:00:00 29,8 17,9 13 7 SE 1015,9 5 -
17.06.2019 13:00:00 29,3 16,5 11 6 SSE 1016,3 12 0,0
17.06.2019 12:00:00 27,9 16,8 9 5 S 1016,6 16 0,0
17.06.2019 11:00:00 25,8 16,9 9 5 SSW 1017,1 5 -
17.06.2019 10:00:00 23,7 17,2 8 4 S 1017,4 18 0,0
17.06.2019 09:00:00 21,4 16,8 2 1 SW 1017,6 18 0,0
17.06.2019 08:00:00 19,2 15,7 2 1 E 1017,5 2,0 -
17.06.2019 07:00:00 16,5 14,5 4 2 NNE 1017,1 19 0,0
17.06.2019 06:00:00 16,8 15,0 2 1 WSW 1016,9 19 0,0
17.06.2019 05:00:00 17,3 15,3 9 5 WSW 1016,8 19 -
17.06.2019 04:00:00 17,4 14,3 9 5 SW 1016,9 20 0,0
17.06.2019 03:00:00 18,1 14,6 2 1 SE 1016,8 20 0,0
17.06.2019 02:00:00 18,5 14,8 2 1 ESE 1017,1 20 -
17.06.2019 01:00:00 19,1 14,8 5 3 SE 1017,7 20 0,0
17.06.2019 00:00:00 19,7 14,5 9 5 SSE 1018,0 16 0,0
16.06.2019 23:00:00 20,4 14,5 8 4 SSE 1018,1 1,1 -
16.06.2019 22:00:00 21,3 13,5 5 3 SSE 1017,5 20 0,0
16.06.2019 21:00:00 22,8 12,7 11 6 SSE 1017,3 20 0,0
16.06.2019 20:00:00 25,2 11,0 15 8 S 1017,4 10 -
16.06.2019 19:00:00 25,9 13,1 13 7 ESE 1017,4 20 0,0
16.06.2019 18:00:00 28,3 11,8 13 7 SSE 1017,3 20 0,0
16.06.2019 17:00:00 29,0 12,8 15 8 SSE 1018,0 20 -
16.06.2019 16:00:00 28,9 13,2 18 10 SE 1018,6 20 0,0
16.06.2019 15:00:00 28,0 13,1 18 10 ESE 1018,8 20 0,0
16.06.2019 14:00:00 27,7 12,5 21 11 ESE 1019,2 8 -
16.06.2019 13:00:00 29,0 13,2 13 7 SE 1019,7 20 0,0
16.06.2019 12:00:00 28,6 14,4 9 5 SE 1020,3 19 0,0
16.06.2019 11:00:00 26,2 13,7 5 3 SSE 1020,8 5 -
16.06.2019 10:00:00 23,9 14,3 4 2 E 1020,9 20 0,0
16.06.2019 09:00:00 22,9 15,7 4 2 NNE 1020,8 19 0,0
16.06.2019 08:00:00 18,6 14,9 5 3 N 1020,8 5 -
16.06.2019 07:00:00 16,3 14,5 4 2 NNW 1020,7 12 0,0
16.06.2019 06:00:00 16,7 14,3 5 3 N 1020,5 14 0,0
16.06.2019 05:00:00 18,0 15,6 5 3 W 1020,4 14 -
16.06.2019 04:00:00 18,1 15,7 4 2 WSW 1020,7 13 0,0
16.06.2019 03:00:00 18,3 15,7 8 4 WSW 1021,0 12 0,0
16.06.2019 02:00:00 18,7 15,8 4 2 SW 1021,1 12 -
16.06.2019 01:00:00 19,2 15,9 5 3 S 1021,2 13 0,0
16.06.2019 00:00:00 19,8 15,6 4 2 S 1020,8 15 0,0
15.06.2019 23:00:00 20,7 15,3 9 5 SW 1019,8 19 -
15.06.2019 22:00:00 23,0 13,7 9 5 ESE 1017,9 20 0,0
15.06.2019 21:00:00 26,0 8,5 8 4 SSE 1016,6 20 0,0
15.06.2019 20:00:00 28,0 7,3 11 6 SE 1015,8 10 -
15.06.2019 19:00:00 29,5 6,8 13 7 SE 1015,4 20 0,0
15.06.2019 18:00:00 30,2 7,4 13 7 SE 1015,3 20 0,0
15.06.2019 17:00:00 31,0 7,4 15 8 SE 1015,5 12 -
15.06.2019 16:00:00 32,4 8,6 13 7 E 1015,2 20 0,0
15.06.2019 15:00:00 32,8 4,5 13 7 NNE 1015,2 20 0,0
15.06.2019 14:00:00 31,5 5,8 11 6 NNW 1015,8 12 -
15.06.2019 13:00:00 30,5 6,4 16 9 N 1016,3 20 0,0
15.06.2019 12:00:00 28,8 7,4 13 7 N 1016,4 20 0,0
15.06.2019 11:00:00 26,7 8,2 13 7 N 1016,5 12 -
15.06.2019 10:00:00 25,2 7,8 13 7 NNW 1016,5 20 0,0
15.06.2019 09:00:00 23,0 9,4 15 8 N 1015,9 20 0,0
15.06.2019 08:00:00 20,7 9,9 16 9 N 1015,5 12 -
15.06.2019 07:00:00 19,2 9,9 16 9 N 1015,0 20 0,0
15.06.2019 06:00:00 19,6 8,9 13 7 NNW 1014,4 20 0,0
15.06.2019 05:00:00 17,2 15,7 9 5 N 1013,6 10 -
15.06.2019 04:00:00 17,2 15,5 8 4 NNW 1013,7 11 0,0
15.06.2019 03:00:00 17,9 16,2 4 2 N 1013,8 8 0,0
15.06.2019 02:00:00 18,5 16,7 8 4 WSW 1013,4 10 -
15.06.2019 01:00:00 18,9 16,9 8 4 SSW 1013,3 11 0,0
15.06.2019 00:00:00 19,6 16,6 8 4 WSW 1012,6 18 0,0
14.06.2019 23:00:00 20,2 16,0 9 5 S 1012,2 20 -
14.06.2019 22:00:00 21,4 15,9 4 2 S 1011,6 20 0,0
14.06.2019 21:00:00 23,8 14,2 13 7 SE 1010,9 19 0,0
14.06.2019 20:00:00 25,5 12,7 9 5 SSE 1010,2 8 -
14.06.2019 19:00:00 26,2 13,7 16 9 SE 1009,8 20 0,0
14.06.2019 18:00:00 27,7 12,5 16 9 SE 1009,9 20 0,0
14.06.2019 17:00:00 27,6 13,5 16 9 ESE 1009,9 8 -
14.06.2019 16:00:00 27,7 13,2 18 10 ESE 1009,8 20 0,0
14.06.2019 15:00:00 28,9 11,9 11 6 ESE 1009,9 20 0,0
14.06.2019 14:00:00 27,6 10,8 15 8 SSW 1010,3 8 -
14.06.2019 13:00:00 27,3 12,1 11 6 SSE 1010,6 20 0,0
14.06.2019 12:00:00 26,6 11,1 8 4 SSE 1009,6 20 0,0
14.06.2019 11:00:00 22,5 8,9 4 2 SSW 1010,6 6 -
14.06.2019 10:00:00 22,2 8,0 9 5 NNW 1010,5 20 0,0
14.06.2019 09:00:00 20,9 7,5 5 3 NNE 1010,1 20 0,0
14.06.2019 08:00:00 17,7 6,8 4 2 NNE 1009,8 8 -
14.06.2019 07:00:00 16,7 6,2 4 2 NNE 1009,5 20 0,0
14.06.2019 06:00:00 16,5 4,8 5 3 N 1009,2 20 0,0

tt = temperature
td = dewpoint
ff = wind speed
dd = wind direction
ppp = reduced air pressure
vv = visibility
rr = precipitation

Next stations